Find Globalstar M025

NORAD ID: 25770 Int'l Des: 1999-031 Owner: GLOBT Country: US Constellation: globalstar operational
MEOCIRCULAR

Live Position

Loading 3D Globe...

About Globalstar M025

Description loading...

Upcoming Passes

Passes for default location (London). Set your location on the main map for personalized predictions.

Altitude History

Loading altitude history...

Two-Line Element Set

1 25770U 99031A 26106.97641917 -.00000035 00000-0 98867-3 0 9992
2 25770 51.9797 175.5185 0002088 272.1843 260.4809 11.22560912515827
Epoch: Apr 16, 2026 • Age: 13 hours

Current Status

Altitude 2061.2 km
Velocity 6.87 km/s
Sub-Earth Point -45.17°S, 9.91°E
Launch Date Jun 10, 1999
Age 26.8 years
Type communications

Technical Details

Classification Payload
Mass 450.00 kg
Dry Mass 380.00 kg
Total Mass 450.00 kg
Length 1.50 m
Diameter 0.60 m
Span 12.00 m
Shape Box + 2 Pan
Manufacturer LOR
Bus Type LS-400
Phase Status In Orbit
Owner/State GLOBT/US

Most Searched